#timestamp,LO_Frequency,Hit,StdDev 
1590350415.7,286047000.5,N
1590350435.5,286046999.7,N
1590350455.4,286047002.0,N
1590350475.2,286047000.6,N
1590350495.0,286047000.4,N
1590350495.9,286047000.4,N
1590350515.8,286047001.1,N
1590350535.6,286046997.2,N
1590350555.4,286046998.2,N
1590350575.3,286047000.4,N
1590350595.1,286047000.8,N
1590350615.9,286047002.8,N
1590350635.7,286046998.3,N
1590350655.5,286046998.5,N
1590350675.4,286046998.6,N
1590350695.2,286046998.3,N
1590350715.0,286046999.1,N
1590350715.9,286046999.1,N
1590350735.8,286046996.6,N
1590350755.6,286046999.1,N
1590350775.5,286047001.2,N
1590350795.3,286046998.1,N
1590350815.1,286047000.8,N
1590350835.9,286047002.7,N
1590350855.7,286047001.1,N
1590350875.6,286047001.2,N
1590350895.4,286047000.6,N
1590350915.2,286046998.7,N
1590350935.1,286046998.1,N
1590350936.0,286046998.1,N
1590350955.8,286046998.3,N
1590350975.7,286047000.5,N
1590350995.5,286047001.4,N
1590351015.3,286047000.6,N
1590351035.2,286046999.9,N
1590351055.0,286046999.8,N
1590351055.9,286046999.8,N
1590351075.7,286047002.7,N
1590351095.6,286047001.5,N
1590351115.4,286046998.2,N
1590351135.3,286046999.3,N
1590351155.1,286046999.3,N
1590351156.0,286046999.3,N
1590351175.8,286046996.7,N
1590351195.7,286046995.1,Y
1590351215.5,286046995.9,P
1590351235.4,286046993.7,P
1590351255.2,286046993.8,N
1590351275.0,286046994.3,N
1590351275.9,286046994.3,N
1590351295.8,286046996.2,N
1590351315.6,286046996.1,N
1590351335.4,286046995.2,N
1590351355.3,286046994.5,Y
1590351375.1,286046999.2,P
1590351395.9,286047000.6,N
1590351415.7,286046998.8,N
1590351435.5,286046999.6,N
1590351455.4,286046997.8,N
1590351475.2,286046996.6,N
1590351495.1,286046997.7,N
1590351496.0,286046997.7,N
1590351515.8,286046997.5,N
1590351535.6,286047004.4,Y
1590351555.5,286046995.5,P
1590351575.3,286047000.9,N
1590351595.2,286046998.6,N
1590351615.9,286047001.0,N
1590351635.7,286046999.2,N
1590351655.6,286046998.9,N
1590351675.4,286046998.3,N
1590351695.2,286046998.4,N
1590351715.1,286047000.5,N
1590351716.0,286047000.5,N
1590351735.8,286047002.6,N
1590351755.7,286047004.1,N
1590351775.5,286047006.7,Y
1590351795.3,286047007.3,P
1590351815.2,286047006.7,N
1590351835.0,286047006.0,N
1590351835.9,286047006.0,N
1590351855.8,286047005.5,N
1590351875.6,286047004.0,N
1590351895.4,286047002.5,N
1590351915.3,286047003.4,N
1590351935.1,286047000.1,N
1590351955.8,286047002.0,N
1590351975.7,286047003.2,N
1590351995.5,286047002.0,N
1590352015.4,286047001.7,N
1590352035.2,286047003.6,N
1590352055.0,286047003.0,N
1590352055.9,286047003.0,N
1590352075.8,286047001.6,N
1590352095.6,286047002.5,N
1590352115.5,286047004.0,N
1590352135.3,286047003.5,N
1590352155.1,286047002.2,N
1590352175.9,286047003.1,N
1590352195.7,286047005.4,N
1590352215.6,286047006.0,Y
1590352235.4,286046998.7,P
1590352255.2,286047000.3,N
1590352275.1,286047002.7,N
1590352276.0,286047002.7,N
1590352295.8,286046999.3,N
1590352315.6,286046999.3,N
1590352335.5,286047002.6,N
1590352355.3,286046999.8,N
1590352375.2,286047001.2,N
1590352395.9,286046999.0,N
1590352415.7,286047002.4,N
1590352435.6,286047001.7,N
1590352455.4,286047002.3,N
1590352475.3,286047002.6,N
1590352495.1,286047000.4,N
1590352496.0,286047000.4,N
1590352515.8,286046998.9,N
1590352535.7,286046998.7,N
1590352555.5,286047000.8,N
1590352575.3,286047002.7,N
1590352595.2,286047003.5,N
1590352615.0,286047005.9,Y
1590352615.9,286047005.9,P
1590352635.8,286047000.0,N
1590352655.6,286046998.1,N
1590352675.4,286046998.8,N
1590352695.3,286047000.9,N
1590352715.1,286047001.2,N
1590352735.9,286046997.7,N
1590352755.7,286046999.0,N
1590352775.5,286047002.4,N
1590352795.4,286047002.8,N
1590352815.2,286046998.1,N
1590352835.1,286047002.8,N
1590352836.0,286047002.8,N
1590352855.8,286047000.7,N
1590352875.6,286047001.2,N
1590352895.5,286047000.4,N
1590352915.3,286047001.2,N
1590352935.1,286046999.4,N
1590352955.9,286046997.0,N
1590352975.7,286046998.3,N
1590352995.6,286047002.7,N
1590353015.4,286047002.4,N
1590353035.2,286047002.7,N
1590353055.1,286047000.3,N
1590353056.0,286047000.3,N
1590353075.8,286047001.0,N
1590353095.7,286047002.8,N
1590353115.5,286047000.5,N
1590353135.3,286047002.7,N
1590353155.2,286047001.1,N
1590353175.0,286046996.6,N
1590353175.9,286046996.6,N
1590353195.8,286046998.2,N
1590353215.6,286047000.5,N
1590353235.4,286047000.1,N
1590353255.3,286047002.2,N
1590353275.1,286047002.5,N
1590353295.8,286047001.4,N
1590353315.7,286047001.6,N
1590353335.5,286047002.4,N
1590353355.4,286047002.0,N
1590353375.2,286047001.8,N
1590353395.0,286047003.5,N
1590353395.9,286047003.5,N
1590353415.8,286047003.7,N
1590353435.6,286047001.4,N
1590353455.5,286047005.6,N
1590353475.3,286047004.3,N
1590353495.1,286047001.7,N
1590353515.9,286047003.9,N
1590353535.7,286047003.2,N
1590353555.5,286047002.9,N
1590353575.4,286047005.2,N
1590353595.2,286047002.9,N
1590353615.1,286047003.2,N
1590353616.0,286047003.2,N
1590353635.8,286047004.3,N
1590353655.6,286047005.9,N
1590353675.5,286047003.4,N
1590353695.3,286047005.6,N
1590353715.1,286047006.0,N
1590353735.9,286047003.0,N
1590353755.7,286047004.8,N
1590353775.6,286047003.0,N
1590353795.4,286047005.7,Y
1590353815.2,286047001.5,P
1590353835.1,286047001.0,N
1590353836.0,286047001.0,N
1590353855.8,286047000.5,N
1590353875.7,286047001.4,N
1590353895.5,286047002.5,N
1590353915.3,286047000.3,N
1590353935.2,286047002.1,N
1590353955.0,286047002.0,N
1590353955.9,286047002.0,N
1590353975.8,286046999.7,N
1590353995.6,286047004.2,Y
